| time (UTC) | temp F | wind direction | speed MPH | gust MPH | rain 1hr in | rain 24hr in | rain mn in | humidity % | barometer mb |
| 20260906011521 | 66 | 158 | 1.0 | 2.0 | 0.00 | 0.01 | 0.01 | 65 | 1015.5 |
| 20260906010521 | 66 | 158 | 1.0 | 2.0 | 0.00 | 0.01 | 0.01 | 67 | 1015.4 |
| 20260906005521 | 67 | 158 | 1.0 | 3.0 | 0.00 | 0.01 | 0.01 | 65 | 1015.6 |
| 20260906004515 | 68 | 23 | 1.0 | 2.0 | 0.00 | 0.01 | 0.01 | 64 | 1015.8 |
| 20260906003521 | 67 | 293 | 1.0 | 2.0 | 0.00 | 0.01 | 0.01 | 68 | 1015.6 |
| 20260906001522 | 66 | 180 | 2.0 | 6.0 | 0.00 | 0.01 | 0.01 | 70 | 1015.9 |
| 20260906000515 | 65 | 158 | 1.0 | 4.0 | 0.00 | 0.01 | 0.01 | 71 | 1015.9 |
| 20260905235523 | 65 | 180 | 2.0 | 5.0 | 0.00 | 0.01 | 0.01 | 69 | 1015.8 |
| 20260905234517 | 66 | 158 | 2.0 | 4.0 | 0.00 | 0.01 | 0.01 | 66 | 1015.8 |
| 20260905233526 | 67 | 0.0 | 0.0 | 0.00 | 0.01 | 0.01 | 60 | 1015.7 | |
| 20260905231548 | 68 | 0.0 | 0.0 | 0.00 | 0.01 | 0.01 | 59 | 1015.7 | |
| 20260905230519 | 67 | 0.0 | 0.0 | 0.00 | 0.01 | 0.01 | 60 | 1015.7 | |
| 20260905224517 | 67 | 0 | 1.0 | 4.0 | 0.00 | 0.01 | 0.01 | 60 | 1015.7 |
| 20260905223547 | 68 | 315 | 1.0 | 4.0 | 0.00 | 0.01 | 0.01 | 59 | 1015.7 |
| 20260905222548 | 68 | 0 | 1.0 | 2.0 | 0.00 | 0.01 | 0.01 | 60 | 1015.8 |
| 20260905221539 | 69 | 0.0 | 1.0 | 0.00 | 0.01 | 0.01 | 55 | 1015.8 | |
| 20260905220523 | 68 | 0.0 | 2.0 | 0.00 | 0.01 | 0.01 | 61 | 1015.8 | |
| 20260905215520 | 68 | 23 | 1.0 | 2.0 | 0.00 | 0.01 | 0.01 | 59 | 1015.8 |
| 20260905214553 | 68 | 0.0 | 1.0 | 0.00 | 0.01 | 0.01 | 60 | 1015.8 | |
| 20260905213517 | 68 | 0 | 1.0 | 2.0 | 0.00 | 0.01 | 0.01 | 55 | 1015.9 |
| 20260905212546 | 69 | 0 | 1.0 | 2.0 | 0.00 | 0.01 | 0.01 | 54 | 1016.1 |
| 20260905211531 | 68 | 0.0 | 0.0 | 0.00 | 0.01 | 0.01 | 57 | 1016.0 | |
| 20260905210518 | 69 | 180 | 2.0 | 3.0 | 0.00 | 0.01 | 0.01 | 56 | 1016.2 |
| 20260905205517 | 69 | 90 | 1.0 | 2.0 | 0.00 | 0.01 | 0.01 | 56 | 1016.3 |
| 20260905204607 | 68 | 158 | 1.0 | 3.0 | 0.00 | 0.01 | 0.01 | 57 | 1016.3 |
| 20260905203523 | 67 | 158 | 1.0 | 3.0 | 0.00 | 0.01 | 0.01 | 58 | 1016.3 |
| 20260905202516 | 67 | 45 | 2.0 | 5.0 | 0.00 | 0.01 | 0.01 | 56 | 1016.3 |
| 20260905201522 | 69 | 23 | 2.0 | 5.0 | 0.00 | 0.01 | 0.01 | 57 | 1016.3 |
| 20260905200517 | 67 | 0.0 | 4.0 | 0.00 | 0.01 | 0.01 | 62 | 1016.4 | |
| 20260905195517 | 67 | 68 | 1.0 | 6.0 | 0.00 | 0.01 | 0.01 | 60 | 1016.6 |
| 20260905194517 | 67 | 23 | 2.0 | 5.0 | 0.00 | 0.01 | 0.01 | 63 | 1016.7 |
| 20260905193523 | 66 | 90 | 2.0 | 5.0 | 0.00 | 0.01 | 0.01 | 62 | 1016.8 |
| 20260905192547 | 67 | 68 | 2.0 | 6.0 | 0.00 | 0.01 | 0.01 | 63 | 1016.9 |
| 20260905191516 | 66 | 45 | 2.0 | 6.0 | 0.00 | 0.01 | 0.01 | 63 | 1016.9 |
| 20260905190517 | 65 | 68 | 2.0 | 5.0 | 0.00 | 0.01 | 0.01 | 65 | 1017.0 |
| 20260905185517 | 65 | 45 | 2.0 | 5.0 | 0.00 | 0.01 | 0.01 | 66 | 1017.2 |
| 20260905184516 | 64 | 0 | 2.0 | 5.0 | 0.00 | 0.01 | 0.01 | 68 | 1017.4 |
| 20260905183523 | 63 | 45 | 2.0 | 5.0 | 0.00 | 0.01 | 0.01 | 70 | 1017.5 |
| 20260905182610 | 62 | 338 | 1.0 | 2.0 | 0.00 | 0.01 | 0.01 | 74 | 1017.6 |
| 20260905181516 | 62 | 338 | 2.0 | 4.0 | 0.00 | 0.01 | 0.01 | 77 | 1017.6 |
| 20260905180536 | 60 | 158 | 1.0 | 4.0 | 0.00 | 0.01 | 0.01 | 80 | 1017.7 |
| 20260905175516 | 58 | 113 | 1.0 | 2.0 | 0.00 | 0.01 | 0.01 | 84 | 1017.7 |
| 20260905174521 | 58 | 90 | 1.0 | 3.0 | 0.00 | 0.01 | 0.01 | 84 | 1017.7 |
| 20260905173516 | 57 | 0.0 | 2.0 | 0.00 | 0.01 | 0.01 | 84 | 1017.7 | |
| 20260905172516 | 58 | 68 | 1.0 | 2.0 | 0.00 | 0.01 | 0.01 | 85 | 1017.7 |
| 20260905171522 | 57 | 0.0 | 0.0 | 0.00 | 0.01 | 0.01 | 85 | 1017.7 | |
| 20260905170516 | 57 | 0.0 | 0.0 | 0.00 | 0.01 | 0.01 | 86 | 1017.6 | |
| 20260905165516 | 57 | 0.0 | 0.0 | 0.00 | 0.01 | 0.01 | 84 | 1017.6 | |
| 20260905164516 | 57 | 0.0 | 0.0 | 0.00 | 0.01 | 0.01 | 85 | 1017.6 | |
| 20260905163521 | 57 | 0.0 | 0.0 | 0.00 | 0.01 | 0.01 | 86 | 1017.7 | |
| 20260905162536 | 56 | 0.0 | 0.0 | 0.00 | 0.01 | 0.01 | 87 | 1017.6 | |
| 20260905161516 | 56 | 0.0 | 0.0 | 0.00 | 0.01 | 0.01 | 88 | 1017.6 | |
| 20260905160516 | 56 | 0.0 | 0.0 | 0.00 | 0.01 | 0.01 | 91 | 1017.6 | |
| 20260905155516 | 55 | 0.0 | 0.0 | 0.00 | 0.01 | 0.01 | 91 | 1017.6 | |
| 20260905154517 | 55 | 0.0 | 0.0 | 0.00 | 0.01 | 0.01 | 92 | 1017.6 | |
| 20260905153516 | 55 | 0.0 | 0.0 | 0.00 | 0.01 | 0.01 | 93 | 1017.6 | |
| 20260905152516 | 54 | 0.0 | 1.0 | 0.01 | 0.01 | 0.01 | 93 | 1017.6 | |
| 20260905151515 | 54 | 0.0 | 0.0 | 0.01 | 0.01 | 0.01 | 93 | 1017.7 | |
| 20260905150521 | 53 | 0.0 | 0.0 | 0.01 | 0.01 | 0.01 | 94 | 1017.6 | |
| 20260905145639 | 53 | 0.0 | 0.0 | 0.01 | 0.01 | 0.01 | 94 | 1017.6 | |
| 20260905145016 | 53 | 0.0 | 0.0 | 0.01 | 0.01 | 0.01 | 94 | 1017.5 | |
| 20260905144036 | 52 | 0.0 | 0.0 | 0.01 | 0.01 | 0.01 | 94 | 1017.4 | |
| 20260905143016 | 52 | 0.0 | 0.0 | 0.01 | 0.01 | 0.01 | 94 | 1017.6 | |
| 20260905142049 | 52 | 0.0 | 0.0 | 0.00 | 0.00 | 0.00 | 94 | 1017.4 | |
| 20260905141021 | 52 | 0.0 | 0.0 | 0.00 | 0.00 | 0.00 | 94 | 1017.4 | |
| 20260905140046 | 51 | 0.0 | 0.0 | 0.00 | 0.00 | 0.00 | 94 | 1017.3 | |
| 20260905135022 | 51 | 0.0 | 0.0 | 0.00 | 0.00 | 0.00 | 94 | 1017.1 | |
| 20260905134021 | 51 | 0.0 | 0.0 | 0.00 | 0.00 | 0.00 | 94 | 1017.0 | |
| 20260905133016 | 51 | 0.0 | 0.0 | 0.00 | 0.00 | 0.00 | 93 | 1017.1 | |
| 20260905132015 | 51 | 0.0 | 0.0 | 0.00 | 0.01 | 0.00 | 93 | 1017.0 | |
| 20260905131101 | 52 | 0.0 | 0.0 | 0.00 | 0.01 | 0.00 | 93 | 1016.9 | |
| 20260905130043 | 52 | 0.0 | 0.0 | 0.00 | 0.01 | 0.00 | 93 | 1016.9 | |
| 20260905125021 | 52 | 0.0 | 0.0 | 0.00 | 0.01 | 0.00 | 93 | 1016.9 | |
| 20260905124016 | 52 | 0.0 | 0.0 | 0.00 | 0.01 | 0.00 | 93 | 1016.8 | |
| 20260905123021 | 52 | 0.0 | 0.0 | 0.00 | 0.01 | 0.00 | 93 | 1016.8 | |
| 20260905122023 | 52 | 0.0 | 0.0 | 0.00 | 0.01 | 0.00 | 93 | 1017.0 | |
| 20260905121022 | 52 | 0.0 | 0.0 | 0.00 | 0.01 | 0.00 | 93 | 1017.0 | |
| 20260905120021 | 52 | 0.0 | 0.0 | 0.00 | 0.01 | 0.00 | 93 | 1016.8 | |
| 20260905115017 | 52 | 0.0 | 0.0 | 0.00 | 0.01 | 0.00 | 93 | 1016.8 | |
| 20260905114056 | 52 | 0.0 | 0.0 | 0.00 | 0.01 | 0.00 | 93 | 1016.9 | |
| 20260905113016 | 52 | 0.0 | 0.0 | 0.00 | 0.01 | 0.00 | 93 | 1016.9 | |
| 20260905112048 | 52 | 0.0 | 0.0 | 0.00 | 0.01 | 0.00 | 93 | 1016.6 | |
| 20260905111023 | 52 | 0.0 | 0.0 | 0.00 | 0.01 | 0.00 | 93 | 1016.6 | |
| 20260905110017 | 52 | 0.0 | 0.0 | 0.00 | 0.01 | 0.00 | 93 | 1016.5 | |
| 20260905105022 | 52 | 0.0 | 0.0 | 0.00 | 0.01 | 0.00 | 93 | 1016.5 | |
| 20260905104048 | 52 | 0.0 | 0.0 | 0.00 | 0.01 | 0.00 | 93 | 1016.6 | |
| 20260905103017 | 52 | 0.0 | 0.0 | 0.00 | 0.01 | 0.00 | 93 | 1016.6 | |
| 20260905102022 | 52 | 0.0 | 0.0 | 0.00 | 0.01 | 0.00 | 93 | 1016.6 | |
| 20260905101022 | 52 | 0.0 | 0.0 | 0.00 | 0.01 | 0.00 | 93 | 1016.5 | |
| 20260905100022 | 53 | 0.0 | 0.0 | 0.00 | 0.01 | 0.00 | 93 | 1016.5 | |
| 20260905095047 | 53 | 0.0 | 0.0 | 0.00 | 0.01 | 0.00 | 93 | 1016.6 | |
| 20260905094158 | 53 | 0.0 | 0.0 | 0.00 | 0.01 | 0.00 | 92 | 1016.6 | |
| 20260905093022 | 53 | 0.0 | 0.0 | 0.00 | 0.01 | 0.00 | 93 | 1016.6 | |
| 20260905092017 | 53 | 0.0 | 0.0 | 0.00 | 0.01 | 0.00 | 92 | 1016.6 | |
| 20260905091022 | 53 | 0.0 | 0.0 | 0.00 | 0.01 | 0.00 | 92 | 1016.5 | |
| 20260905090037 | 54 | 0.0 | 0.0 | 0.00 | 0.01 | 0.00 | 92 | 1016.7 | |
| 20260905085017 | 54 | 0.0 | 0.0 | 0.00 | 0.01 | 0.00 | 92 | 1016.7 | |
| 20260905084020 | 54 | 0.0 | 0.0 | 0.00 | 0.01 | 0.00 | 92 | 1016.6 | |
| 20260905083016 | 54 | 0.0 | 0.0 | 0.00 | 0.01 | 0.00 | 92 | 1016.6 | |
| 20260905082017 | 54 | 0.0 | 0.0 | 0.00 | 0.01 | 0.00 | 92 | 1016.5 | |
| 20260905081206 | 54 | 0.0 | 0.0 | 0.00 | 0.01 | 0.00 | 92 | 1016.5 | |
| 20260905075022 | 54 | 0.0 | 3.0 | 0.00 | 0.01 | 0.00 | 92 | 1016.3 | |
| 20260905074022 | 54 | 0.0 | 0.0 | 0.00 | 0.01 | 0.00 | 91 | 1016.3 | |
| 20260905073016 | 55 | 0.0 | 0.0 | 0.00 | 0.01 | 0.00 | 91 | 1016.1 | |
| 20260905072057 | 55 | 0.0 | 0.0 | 0.00 | 0.01 | 0.00 | 91 | 1016.0 | |
| 20260905071047 | 55 | 0.0 | 0.0 | 0.00 | 0.01 | 0.00 | 91 | 1015.9 | |
| 20260905070016 | 55 | 0.0 | 0.0 | 0.00 | 0.01 | 0.01 | 91 | 1015.7 | |
| 20260905065056 | 55 | 0.0 | 0.0 | 0.00 | 0.01 | 0.01 | 91 | 1015.6 | |
| 20260905064022 | 55 | 0.0 | 0.0 | 0.00 | 0.01 | 0.01 | 90 | 1015.6 | |
| 20260905063021 | 55 | 0.0 | 0.0 | 0.00 | 0.01 | 0.01 | 90 | 1015.4 | |
| 20260905062017 | 55 | 0.0 | 0.0 | 0.00 | 0.01 | 0.01 | 89 | 1015.4 | |
| 20260905061036 | 55 | 0.0 | 0.0 | 0.00 | 0.01 | 0.01 | 89 | 1015.5 | |
| 20260905060114 | 55 | 0.0 | 0.0 | 0.00 | 0.01 | 0.01 | 89 | 1015.6 | |
| 20260905055021 | 55 | 0.0 | 0.0 | 0.00 | 0.01 | 0.01 | 88 | 1015.6 | |
| 20260905054016 | 55 | 0.0 | 0.0 | 0.00 | 0.01 | 0.01 | 87 | 1015.4 | |
| 20260905052022 | 55 | 0.0 | 0.0 | 0.00 | 0.01 | 0.01 | 87 | 1015.4 | |
| 20260905051016 | 55 | 0.0 | 0.0 | 0.00 | 0.01 | 0.01 | 87 | 1015.3 | |
| 20260905050025 | 55 | 0.0 | 0.0 | 0.00 | 0.01 | 0.01 | 87 | 1015.3 | |
| 20260905045022 | 55 | 0.0 | 0.0 | 0.00 | 0.01 | 0.01 | 86 | 1015.2 | |
| 20260905044022 | 55 | 0.0 | 0.0 | 0.00 | 0.01 | 0.01 | 86 | 1015.3 | |
| 20260905043021 | 56 | 0.0 | 0.0 | 0.00 | 0.01 | 0.01 | 85 | 1015.1 | |
| 20260905042022 | 56 | 0.0 | 0.0 | 0.00 | 0.01 | 0.01 | 84 | 1015.1 | |
| 20260905041038 | 57 | 0.0 | 0.0 | 0.00 | 0.01 | 0.01 | 83 | 1015.0 | |
| 20260905040024 | 57 | 0.0 | 2.0 | 0.00 | 0.01 | 0.01 | 84 | 1014.9 | |
| 20260905035112 | 58 | 0.0 | 1.0 | 0.00 | 0.01 | 0.01 | 82 | 1014.9 | |
| 20260905034016 | 58 | 293 | 1.0 | 2.0 | 0.00 | 0.01 | 0.01 | 82 | 1014.9 |
| 20260905033047 | 57 | 0.0 | 2.0 | 0.00 | 0.01 | 0.01 | 82 | 1014.7 | |
| 20260905032018 | 58 | 0.0 | 1.0 | 0.00 | 0.01 | 0.01 | 82 | 1014.5 | |
| 20260905031046 | 58 | 0.0 | 0.0 | 0.00 | 0.01 | 0.01 | 80 | 1014.5 | |
| 20260905030015 | 59 | 0.0 | 0.0 | 0.00 | 0.01 | 0.01 | 78 | 1014.4 | |
| 20260905025016 | 59 | 0.0 | 0.0 | 0.00 | 0.01 | 0.01 | 78 | 1014.4 | |
| 20260905024016 | 59 | 0.0 | 0.0 | 0.00 | 0.01 | 0.01 | 77 | 1014.1 | |
| 20260905023015 | 59 | 0.0 | 0.0 | 0.00 | 0.01 | 0.01 | 76 | 1014.3 | |
| 20260905022034 | 60 | 0.0 | 0.0 | 0.00 | 0.01 | 0.01 | 73 | 1014.3 | |
| 20260905021016 | 60 | 0.0 | 3.0 | 0.00 | 0.01 | 0.01 | 72 | 1014.2 | |
| 20260905020042 | 61 | 270 | 1.0 | 4.0 | 0.00 | 0.01 | 0.01 | 70 | 1014.1 |
| 20260905015036 | 61 | 0.0 | 2.0 | 0.00 | 0.01 | 0.01 | 72 | 1014.1 | |
| 20260905014015 | 62 | 0.0 | 1.0 | 0.00 | 0.01 | 0.01 | 69 | 1014.0 | |
| 20260905013016 | 62 | 270 | 1.0 | 3.0 | 0.00 | 0.01 | 0.01 | 67 | 1014.0 |
| 20260905012021 | 63 | 225 | 1.0 | 5.0 | 0.00 | 0.01 | 0.01 | 67 | 1013.7 |